This is the latest recevied weather packets stored in our database for station/object SP4FDH-13. If no packets are shown the sender has not sent any weather packets the latest 10 day(s).
| Time | Temp. | Humidity | Pressure | Rain* | Wind** | Luminosity | Snow |
|---|---|---|---|---|---|---|---|
| 1777655103 | 21.11° C | 48% | 1022.2 hPa | - | - | - | - |
| 1777654529 | 20.56° C | 47% | 1022.1 hPa | - | - | - | - |
| 1777653953 | 20.56° C | 47% | 1022.1 hPa | - | - | - | - |
| 1777653378 | 21.11° C | 46% | 1022.1 hPa | - | - | - | - |
| 1777652803 | 21.11° C | 45% | 1022.1 hPa | - | - | - | - |
| 1777652228 | 21.11° C | 44% | 1021.9 hPa | - | - | - | - |
| 1777651653 | 21.11° C | 45% | 1022 hPa | - | - | - | - |
| 1777651078 | 21.67° C | 44% | 1022.2 hPa | - | - | - | - |
| 1777650503 | 21.67° C | 45% | 1022.2 hPa | - | - | - | - |
| 1777649928 | 21.67° C | 45% | 1022.3 hPa | - | - | - | - |
| 1777649353 | 21.67° C | 46% | 1022.3 hPa | - | - | - | - |
| 1777648778 | 21.11° C | 45% | 1022.2 hPa | - | - | - | - |
| 1777648203 | 21.67° C | 45% | 1022.3 hPa | - | - | - | - |
| 1777647628 | 21.67° C | 44% | 1022.4 hPa | - | - | - | - |
| 1777647053 | 21.67° C | 43% | 1022.4 hPa | - | - | - | - |
| 1777646477 | 21.67° C | 44% | 1022.6 hPa | - | - | - | - |
| 1777645902 | 21.67° C | 44% | 1022.6 hPa | - | - | - | - |
| 1777645327 | 21.67° C | 44% | 1022.7 hPa | - | - | - | - |
| 1777644752 | 21.67° C | 44% | 1022.8 hPa | - | - | - | - |
| 1777644177 | 21.67° C | 44% | 1022.8 hPa | - | - | - | - |
| 1777643602 | 21.67° C | 42% | 1022.9 hPa | - | - | - | - |
| 1777643028 | 21.67° C | 41% | 1022.9 hPa | - | - | - | - |
| 1777642453 | 22.22° C | 42% | 1022.9 hPa | - | - | - | - |
| 1777641878 | 22.22° C | 41% | 1022.9 hPa | - | - | - | - |
| 1777641305 | 22.78° C | 40% | 1022.9 hPa | - | - | - | - |
* Rain since midnight (hover to see other rain measurements)
** Current wind speed in m/s (hover to see current wind gust speed)